DMSP 5D-2 F13 DEB, 42323

Orbit data source: Space-Track

DMSP 5D-2 F13 DEB, 42323 is space debris in SSO originally from a launch on Fri, 24 Mar 1995 UTC launched from the Air Force Western Test Range (AFWTR). Debris objects in space refer to the collection of defunct objects orbiting the Earth. Examples of debris include non-operational satellites, rocket bodies, and fragments generated from explosions, collisions, or faulty payload assembly.

Loading next visibility...
Identifier
42323, 1995-015JR
Orbit
SSO
Country
Flag of USUS
Related business
Manufacturer
Unknown
Mission
Spacecraft
Bus & Motor
Unknown
Mass
Unknown
Launch date (UTC)
1995-03-24 (31 years ago)
Launch vehicle
Unknown
Launch site
Air Force Western Test Range (AFWTR)
Object type
Payload
Rocket body
Debris
Shape & HBR
Unknown shape, 0.1 m
Radar Cross Section
Small (<0.1 m²)

Expand to show TLE details & history
Last TLE update: 3 days ago

TLE from 3 days ago
0 DMSP 5D-2 F13 DEB
1 42323U 95015JR  26169.97890172  .00000215  00000-0  12729-3 0  9993
2 42323  98.8208 185.5511 0003403  34.9191 325.2206 14.17635528552941
Epoch: 2026-06-18T23:29Z
TLE epoch observation values (Epoch: 2026-06-18T23:29:37.108Z)
Latitude
-0.00008°
Longitude
-74.06797°
Altitude
834.252 km
Speed
7.437 km/s
True Right ascension
12h 22m 12s
True Declination
0° 00' 00"
Sunlit
Object was in daylight at epoch
Visualization orbit readout
Latitude
Unknown
Longitude
Unknown
Altitude
Unknown
Speed
Unknown
Apparent Right ascension
Unknown
Apparent Declination
Unknown
Sunlit
N/A
Visualization observer readout
Local Sidereal Time
06:39:10
Azimuth
Unknown
Elevation
Unknown
Doppler factor
Unknown
Orbital elements
Apogee altitude
832.981 km
Perigee altitude
828.074 km
Semi-major axis
7,208.664 km
Eccentricity
0.00034
Inclination
98.8208°
RAAN
185.5511°
Arg. of periapsis
34.9191°
True anomaly
325.19835°
Mean anomaly
325.2206°
Eccentric anomaly
325.20948°
Mean motion
3.54618 °/min
Orbital period
101.52 mins
BSTAR
0.00012729
Loading maneuver chart data...
Computing Atmospheric mass density...

Documentation

Showing up to 5 results
|